[[{"header":{"parameterUnit":"m.s-1","parameterCategory":1,"la1":30.2991,"la2":30.254,"lo1":-89.0895,"lo2":-89.0444,"dy":0.0017,"dx":0.0017,"nx":28,"ny":28,"refTime":"2024-10-19T09:00:00:Z","depth":0,"parameterNumber":2,"parameterNumberName":"U-component_of_WINDS"},"data":[0,0,0,0,0,0,0,0,0,0,0,0,0,0,0,0,0,0,0,0,0,0,0,0,0,0,0,0,0,0,0,0,0,0,0,0,0,0,0,0,0,0,0,0,0,0,0,0,0,0,0,0,0,0,0,0,0,0,-2.7976,-2.7976,0,-2.7976,-2.7976,-2.7976,-2.7908,-2.7906,-2.7904,-2.7902,-2.7905,-2.7907,-2.7909,0,0,0,0,0,0,0,0,0,0,0,0,0,-2.792,-2.7921,-2.7976,-2.7976,-2.7976,-2.7976,-2.7976,-2.7976,-2.7908,-2.7906,-2.7903,-2.7901,-2.7905,-2.7907,-2.7909,0,0,0,0,0,0,0,0,0,0,0,0,0,-2.7935,-2.7922,-2.7976,-2.7942,-2.7939,-2.7976,-2.7976,-2.7976,-2.7908,-2.7906,-2.7903,-2.79,-2.7904,-2.7907,-2.7909,-2.798,0,0,-2.7918,-2.7919,0,0,0,0,0,0,0,0,-2.7934,-2.7937,-2.7947,-2.7944,-2.7941,-2.7939,-2.7957,-2.7977,-2.7909,-2.792,-2.7902,-2.7899,-2.7919,-2.792,-2.7926,-2.798,-2.798,-2.7918,-2.7919,-2.7921,-2.7921,0,0,0,0,0,0,0,-2.7933,-2.7936,-2.7976,-2.7947,-2.7943,-2.7927,-2.7927,-2.7961,-2.7935,-2.7919,-2.7914,-2.7915,-2.7917,-2.7924,-2.7926,-2.798,-2.7918,-2.792,-2.7922,-2.7923,-2.8094,-2.8097,0,0,0,0,0,0,-2.7936,-2.7936,-2.7976,-2.7976,-2.793,-2.7931,-2.793,-2.7942,-2.7934,-2.793,-2.7917,-2.7911,-2.7921,-2.7923,-2.7926,-2.801,-2.792,-2.7923,-2.7924,-2.8091,-2.8095,-2.8098,0,0,0,0,0,0,-2.7935,-2.794,-2.7976,-2.7955,-2.7958,-2.7935,-2.7949,-2.7944,-2.7951,-2.7933,-2.7928,-2.7929,-2.7919,-2.7922,-2.7967,-2.8009,-2.7924,-2.7927,-2.8088,-2.8092,-2.8096,-2.8177,0,0,0,0,0,0,-2.7934,-2.794,-2.7966,-2.7956,-2.7959,-2.8017,-2.7952,-2.7946,-2.7955,-2.7948,-2.7943,-2.7939,-2.7917,-2.7964,-2.797,-2.8011,-2.7929,-2.8084,-2.809,-2.8095,-2.8171,-2.8184,-2.8195,0,0,0,0,0,-2.7932,-2.7989,-2.7968,-2.7973,-2.7991,-2.8019,-2.8021,-2.7994,-2.7959,-2.7985,-2.7974,-2.7939,-2.8003,-2.7969,-2.7975,-2.8018,-2.8081,-2.8088,-2.8095,-2.8165,-2.8181,-2.8194,0,0,0,0,0,0,-2.8006,-2.7987,-2.7963,-2.8019,-2.8021,-2.8008,-2.804,-2.8011,-2.8024,-2.8017,-2.7983,-2.7982,-2.8034,-2.803,-2.7992,-2.8086,-2.8036,-2.8044,-2.8087,-2.8102,-2.8114,-2.8115,-2.7931,0,0,0,0,0,-2.8029,-2.8052,-2.8035,-2.8085,-2.8088,-2.8064,-2.8075,-2.8053,-2.8055,-2.8056,-2.8047,-2.8051,-2.8072,-2.8087,-2.8104,-2.8169,-2.8168,-2.8201,-2.8213,-2.8223,-2.8232,-2.8267,-2.8283,-2.812,-2.812,-2.812,0,0,-2.8076,-2.8069,-2.8086,-2.81,-2.8099,-2.8126,-2.8065,-2.8095,-2.8115,-2.8061,-2.8103,-2.8097,-2.8099,-2.8155,-2.8179,-2.8153,-2.8276,-2.8232,-2.824,-2.8243,-2.8276,-2.8291,-2.8305,-2.8124,-2.8124,-2.8123,0,0,-2.8177,-2.8172,-2.8215,-2.8215,-2.8215,-2.8198,-2.8209,-2.82,-2.8194,-2.8235,-2.8195,-2.8219,-2.8255,-2.8258,-2.8265,-2.8367,-2.8337,-2.8374,-2.8438,-2.8473,-2.8486,-2.8497,-2.8536,-2.855,-2.8381,-2.8382,-2.8382,0,-2.8236,-2.8274,-2.8241,-2.8274,-2.8282,-2.8233,-2.8276,-2.8278,-2.8284,-2.8292,-2.8262,-2.8307,-2.8305,-2.8362,-2.8387,-2.8393,-2.8405,-2.8375,-2.8486,-2.8497,-2.8508,-2.8544,-2.8558,-2.8386,-2.8386,-2.8385,-2.8385,0,-2.8348,-2.8374,-2.8409,-2.8415,-2.8427,-2.8465,-2.8439,-2.8455,-2.8432,-2.842,-2.8464,-2.8459,-2.8476,-2.8487,-2.8466,-2.8542,-2.8526,-2.8492,-2.8441,-2.8528,-2.8562,-2.8576,-2.8393,-2.8391,-2.839,-2.8389,0,0,-2.8496,-2.8484,-2.8497,-2.85,-2.8496,-2.8516,-2.8553,-2.8568,-2.8584,-2.8589,-2.862,-2.8652,-2.8621,-2.8628,-2.8606,-2.8637,-2.8721,-2.8599,-2.8599,-2.8624,-2.8807,-2.8834,-2.8851,-2.87,-2.8702,-2.8704,-2.8807,0,-2.8595,-2.8656,-2.8628,-2.8693,-2.8718,-2.8671,-2.8703,-2.8705,-2.8694,-2.8715,-2.8703,-2.8727,-2.8682,-2.8687,-2.8715,-2.8705,-2.8757,-2.8696,-2.8731,-2.8732,-2.8734,-2.8868,-2.8897,-2.8995,-2.882,-2.8822,-2.8824,0,-2.8719,-2.873,-2.8797,-2.8789,-2.8799,-2.8828,-2.8841,-2.886,-2.8861,-2.8851,-2.886,-2.8831,-2.8868,-2.8816,-2.8867,-2.8826,-2.8838,-2.8835,-2.8838,-2.8843,-2.8785,-2.8878,-2.9025,-2.9041,-2.8844,-2.8842,-2.8841,0,-2.8824,-2.8854,-2.8899,-2.8902,-2.8894,-2.8916,-2.8913,-2.8912,-2.8923,-2.8934,-2.8942,-2.8958,-2.8967,-2.8981,-2.8957,-2.8921,-2.9013,-2.8958,-2.9008,-2.9009,-2.9031,-2.9031,-2.9185,-2.9035,-2.9035,-2.9035,-2.9034,0,-2.8939,-2.8983,-2.8946,-2.8974,-2.9022,-2.8989,-2.9038,-2.903,-2.9029,-2.9056,-2.9016,-2.9042,-2.9008,-2.9032,-2.9014,-2.9061,-2.9064,-2.9059,-2.9054,-2.9064,-2.9065,-2.9073,-2.9067,-2.9038,-2.9038,-2.9037,-2.9036,0,-2.9065,-2.9042,-2.9088,-2.9075,-2.9073,-2.911,-2.9099,-2.9125,-2.9111,-2.9146,-2.9152,-2.913,-2.9156,-2.9133,-2.9158,-2.9146,-2.9209,-2.9193,-2.9208,-2.9205,-2.9257,-2.9253,-2.9423,-2.9445,-2.9279,-2.9281,-2.9282,0,-2.9141,-2.9173,-2.9164,-2.9179,-2.9179,-2.9202,-2.9214,-2.9183,-2.9197,-2.9201,-2.9227,-2.9249,-2.9265,-2.9308,-2.9295,-2.9314,-2.93,-2.9358,-2.9303,-2.9312,-2.9304,-2.9303,-2.9308,-2.9371,-2.9373,-2.9374,-2.9375,0,-2.9279,-2.9266,-2.9284,-2.9298,-2.9313,-2.9322,-2.9329,-2.9344,-2.9312,-2.933,-2.9355,-2.9367,-2.9392,-2.9415,-2.943,-2.9428,-2.9398,-2.9393,-2.9406,-2.9417,-2.9426,-2.9424,-2.9242,-2.9389,-2.9388,-2.9387,-2.9386,-2.9386,-2.9384,-2.9411,-2.941,-2.9431,-2.9432,-2.944,-2.9464,-2.9453,-2.9473,-2.949,-2.947,-2.9502,-2.9503,-2.952,-2.9522,-2.9547,-2.9523,-2.9541,-2.9546,-2.9552,-2.9561,-2.942,-2.955,-2.9549,-2.9549,-2.9548,-2.9548,0,-2.9522,-2.9519,-2.9538,-2.9549,-2.9566,-2.9534,-2.954,-2.9557,-2.9585,-2.9588,-2.9604,-2.9634,-2.9656,-2.9645,-2.9665,-2.9687,-2.9674,-2.9694,-2.9693,-2.9694,-2.958,-2.9568,-2.9704,-2.9704,-2.9704,-2.9704,-2.9704,-2.9704,-2.9596,-2.9642,-2.9629,-2.9675,-2.967,-2.97,-2.9707,-2.9714,-2.9717,-2.9751,-2.9769,-2.9761,-2.976,-2.9779,-2.9798,-2.9794,-2.9805,-2.983,-2.9822,-2.9717,-2.9701,-2.9687,-2.9676,-2.9832,-2.9832,-2.9934,-2.9935,-2.9936]},{"header":{"parameterUnit":"m.s-1","parameterCategory":1,"la1":30.2991,"la2":30.254,"lo1":-89.0895,"lo2":-89.0444,"dy":0.0017,"dx":0.0017,"nx":28,"ny":28,"refTime":"2024-10-19T09:00:00:Z","depth":0,"parameterNumber":3,"parameterNumberName":"V-component_of_WINDS"},"data":[0,0,0,0,0,0,0,0,0,0,0,0,0,0,0,0,0,0,0,0,0,0,0,0,0,0,0,0,0,0,0,0,0,0,0,0,0,0,0,0,0,0,0,0,0,0,0,0,0,0,0,0,0,0,0,0,0,0,-1.8983,-1.8984,0,-1.9024,-1.9025,-1.9025,-1.9013,-1.9012,-1.9011,-1.901,-1.9052,-1.9054,-1.9055,0,0,0,0,0,0,0,0,0,0,0,0,0,-1.8894,-1.8896,-1.8983,-1.8984,-1.8984,-1.9024,-1.9025,-1.9025,-1.9013,-1.9012,-1.9011,-1.901,-1.9051,-1.9053,-1.9056,0,0,0,0,0,0,0,0,0,0,0,0,0,-1.8934,-1.8896,-1.8983,-1.8983,-1.8983,-1.9024,-1.9025,-1.9025,-1.9013,-1.9012,-1.9011,-1.9009,-1.905,-1.9053,-1.9056,-1.9099,0,0,-1.9065,-1.9066,0,0,0,0,0,0,0,0,-1.8932,-1.8937,-1.8982,-1.8983,-1.8983,-1.9012,-1.9008,-1.905,-1.9013,-1.9002,-1.901,-1.9009,-1.904,-1.9043,-1.9054,-1.9101,-1.9103,-1.9065,-1.9067,-1.9068,-1.9069,0,0,0,0,0,0,0,-1.8929,-1.8935,-1.8999,-1.8983,-1.8984,-1.8981,-1.8985,-1.9016,-1.9027,-1.9003,-1.9002,-1.9007,-1.904,-1.9051,-1.9055,-1.9103,-1.9065,-1.9067,-1.9069,-1.907,-1.919,-1.9191,0,0,0,0,0,0,-1.8926,-1.8933,-1.8998,-1.9001,-1.8954,-1.8983,-1.8988,-1.9004,-1.9027,-1.9029,-1.9008,-1.9006,-1.9047,-1.9051,-1.9056,-1.911,-1.9068,-1.907,-1.9072,-1.9188,-1.919,-1.9192,0,0,0,0,0,0,-1.8924,-1.8932,-1.8996,-1.8967,-1.8975,-1.8986,-1.9004,-1.9006,-1.9017,-1.9031,-1.9033,-1.9018,-1.9046,-1.9052,-1.9089,-1.9111,-1.9072,-1.9074,-1.9187,-1.9189,-1.9191,-1.9216,0,0,0,0,0,0,-1.8921,-1.8931,-1.8948,-1.8967,-1.8976,-1.9029,-1.9006,-1.9007,-1.9022,-1.902,-1.9041,-1.9043,-1.9045,-1.9085,-1.9092,-1.9114,-1.9077,-1.9185,-1.9188,-1.919,-1.9214,-1.9219,-1.9224,0,0,0,0,0,-1.8918,-1.8953,-1.8949,-1.8956,-1.8997,-1.903,-1.9035,-1.9038,-1.9024,-1.9041,-1.905,-1.9042,-1.9107,-1.9089,-1.9096,-1.912,-1.9183,-1.9187,-1.919,-1.9211,-1.9218,-1.9224,0,0,0,0,0,0,-1.8935,-1.8955,-1.8951,-1.8993,-1.901,-1.9028,-1.9049,-1.9045,-1.9066,-1.9063,-1.9065,-1.907,-1.9108,-1.9117,-1.9097,-1.9164,-1.9143,-1.9148,-1.9157,-1.9163,-1.9168,-1.9166,-1.9079,0,0,0,0,0,-1.8944,-1.8969,-1.8985,-1.902,-1.9029,-1.9038,-1.9052,-1.9053,-1.907,-1.9078,-1.9089,-1.9107,-1.9131,-1.9147,-1.917,-1.9214,-1.9219,-1.9234,-1.9239,-1.9243,-1.9249,-1.9274,-1.9281,-1.9203,-1.9203,-1.9203,0,0,-1.8962,-1.8976,-1.8992,-1.9024,-1.9037,-1.9064,-1.9044,-1.9072,-1.9092,-1.9082,-1.9118,-1.9127,-1.9147,-1.9188,-1.9206,-1.9197,-1.9271,-1.9248,-1.9251,-1.9254,-1.9278,-1.9286,-1.9292,-1.9205,-1.9205,-1.9204,0,0,-1.9009,-1.9021,-1.9053,-1.9067,-1.9088,-1.9093,-1.9101,-1.912,-1.9126,-1.9162,-1.9155,-1.9178,-1.922,-1.9235,-1.9248,-1.9301,-1.9295,-1.9308,-1.9336,-1.9361,-1.9367,-1.9372,-1.9393,-1.94,-1.9312,-1.9313,-1.9313,0,-1.9029,-1.9069,-1.907,-1.91,-1.9114,-1.9106,-1.9139,-1.9152,-1.9179,-1.919,-1.9178,-1.9231,-1.9243,-1.9289,-1.9302,-1.9312,-1.9322,-1.9307,-1.9366,-1.9371,-1.9377,-1.9397,-1.9404,-1.9314,-1.9314,-1.9314,-1.9314,0,-1.9093,-1.9121,-1.9144,-1.9171,-1.9188,-1.9219,-1.9225,-1.9242,-1.9241,-1.9248,-1.9286,-1.93,-1.9327,-1.9337,-1.9336,-1.9383,-1.9376,-1.9365,-1.9345,-1.9386,-1.9405,-1.9412,-1.9316,-1.9316,-1.9315,-1.9315,0,0,-1.9153,-1.9181,-1.919,-1.9203,-1.9225,-1.9246,-1.9276,-1.9303,-1.9319,-1.9337,-1.9364,-1.9399,-1.9389,-1.9404,-1.9404,-1.9426,-1.9469,-1.9412,-1.9413,-1.9424,-1.9524,-1.9534,-1.9543,-1.9464,-1.9466,-1.9467,-1.9523,0,-1.9204,-1.9259,-1.9261,-1.931,-1.9337,-1.9329,-1.9356,-1.9372,-1.9379,-1.9403,-1.941,-1.9436,-1.942,-1.9429,-1.945,-1.9459,-1.949,-1.9455,-1.949,-1.9492,-1.9488,-1.9552,-1.9562,-1.9615,-1.953,-1.9531,-1.9532,0,-1.9271,-1.9293,-1.9345,-1.9365,-1.9376,-1.94,-1.9425,-1.9447,-1.9466,-1.9469,-1.9486,-1.9483,-1.9515,-1.9492,-1.9536,-1.9513,-1.9527,-1.9534,-1.9536,-1.9541,-1.9516,-1.9561,-1.9631,-1.964,-1.9543,-1.9542,-1.9542,0,-1.9312,-1.9354,-1.9392,-1.9403,-1.9426,-1.9443,-1.9453,-1.9471,-1.9487,-1.9508,-1.9519,-1.9544,-1.9558,-1.9577,-1.9581,-1.9564,-1.9626,-1.9603,-1.9631,-1.9631,-1.9647,-1.9646,-1.9722,-1.9652,-1.9652,-1.9652,-1.9651,0,-1.937,-1.9403,-1.9411,-1.9434,-1.9471,-1.9473,-1.9509,-1.9518,-1.9534,-1.9559,-1.9553,-1.9577,-1.958,-1.9604,-1.9607,-1.9645,-1.965,-1.9655,-1.9656,-1.9657,-1.9657,-1.9668,-1.9665,-1.9654,-1.9653,-1.9653,-1.9652,0,-1.9424,-1.943,-1.9471,-1.9489,-1.9495,-1.9521,-1.9537,-1.956,-1.9566,-1.9598,-1.9605,-1.9615,-1.9644,-1.9649,-1.9683,-1.9685,-1.973,-1.9726,-1.9724,-1.9725,-1.9753,-1.9751,-1.9841,-1.9854,-1.9773,-1.9774,-1.9775,0,-1.9461,-1.9487,-1.9508,-1.9525,-1.9537,-1.9563,-1.958,-1.9582,-1.96,-1.9623,-1.9643,-1.9671,-1.9694,-1.974,-1.975,-1.9776,-1.9774,-1.9804,-1.9778,-1.9779,-1.9778,-1.9777,-1.978,-1.981,-1.981,-1.9811,-1.9812,0,-1.9528,-1.953,-1.9555,-1.9581,-1.9601,-1.9621,-1.964,-1.9654,-1.9659,-1.9679,-1.9709,-1.9726,-1.9761,-1.979,-1.9815,-1.9826,-1.9821,-1.9819,-1.9828,-1.983,-1.9829,-1.9833,-1.974,-1.9818,-1.9817,-1.9817,-1.9817,-1.9816,-1.9577,-1.9599,-1.9619,-1.9646,-1.9661,-1.9679,-1.9702,-1.9711,-1.9736,-1.9765,-1.9764,-1.9797,-1.9816,-1.985,-1.9862,-1.9888,-1.9879,-1.989,-1.9894,-1.9897,-1.9901,-1.9823,-1.9892,-1.9892,-1.9892,-1.9892,-1.9892,0,-1.9645,-1.9657,-1.9683,-1.971,-1.9732,-1.9724,-1.9745,-1.9764,-1.9793,-1.9811,-1.9834,-1.9868,-1.9896,-1.9908,-1.9936,-1.9954,-1.9952,-1.9961,-1.9961,-1.9964,-1.9906,-1.9898,-1.9963,-1.9963,-1.9963,-1.9963,-1.9963,-1.9962,-1.9684,-1.9723,-1.9727,-1.9774,-1.9785,-1.9818,-1.9831,-1.9848,-1.9862,-1.9901,-1.9924,-1.9932,-1.9948,-1.9976,-2.0002,-2.0005,-2.0016,-2.0027,-2.0029,-1.9975,-1.9968,-1.9961,-1.9953,-2.0029,-2.0029,-2.0085,-2.0085,-2.0086]}]]